Tracking 19562 objects as of 22-Mar-2019
HD Live streaming from Space Station
objects crossing your sky now

FENGYUN 1C DEB

Track FENGYUN 1C DEB now!
10-day predictions


NORAD ID: 31611
Int'l Code: 1999-025BZR
Perigee: 707.5 km
Apogee: 863.3 km
Inclination: 99.0 °
Period: 100.4 minutes
Semi major axis: 7156 km
RCS: 0.0063 m2 (small)
Launch date: May 10, 1999
Source: People's Republic of China (PRC)
Launch site: Taiyaun Space Center, China (TSC)

Note: This is SATELLITE DEBRIS
aabbcc
Your satellite tracking list
Your tracking list is empty




NASA's NSSDC Master Catalog

Two Line Element Set (TLE):
1 31611U 99025BZR 19078.31421645 +.00001537 +00000-0 +53148-3 0  9998
2 31611 098.9763 209.8547 0108880 304.8089 084.0186 14.34032144316944
Source of the keplerian elements: AFSPC